Location: Aragnouet
(42.7874°N, 0.2165°E)
Time: 16:25:33
(UTC+00:00)

Cosmos 1763 Rocket - Pass Details

Date: 09 April 2020
Orbit: 734 x 779 km, 74.0° (Epoch: 04 June)

Event Time Altitude Azimuth Distance (km) Brightness Sun altitude
Rises 21:24:21 0° 336° (NNW) 3,218 7.8 -28.0°
Reaches altitude 10° 21:26:45 10° 333° (NNW) 2,282 6.8 -28.3°
Enters shadow 21:31:28 60° 276° (W) 856 3.8 -28.9°
